When you browse on this site, cookies collect data to enhance your experience and personalize the content and advertising you see.
Visit our Privacy Policy to learn more. By continuing to use the site, you agree to this use of cookies and data.
  • In Österreich
  • Länderverzeichnis
  • Für 7 Tage
  • Wassertemperatur
  • Satellitenkarten
  • Wetterkarte
  • News
  • Widgets
  • user-avatar
    Anmelden

    Stündliche Wetter Rakitno

    Heute, 23 Juli, Dienstag

    Zeit Temperatur Niederschläge Wind Luftdruck Luftfeuchtigkeit
    00:00 +14°C° 0 mm 3 m/S 750 mmHg 94%
    01:00 +14°C° 0 mm 3 m/S 750 mmHg 95%
    02:00 +14°C° 0 mm 3 m/S 750 mmHg 97%
    03:00 +13°C° 0 mm 3 m/S 750 mmHg 97%
    04:00 +13°C° 0 mm 3 m/S 750 mmHg 97%
    05:00 +12°C° 0 mm 4 m/S 750 mmHg 97%
    06:00 +13°C° 0 mm 4 m/S 750 mmHg 95%
    07:00 +14°C° 0 mm 4 m/S 750 mmHg 94%
    08:00 +14°C° 0 mm 4 m/S 750 mmHg 92%
    09:00 +15°C° 0 mm 4 m/S 750 mmHg 88%
    10:00 +18°C° 0 mm 4 m/S 750 mmHg 83%
    11:00 +19°C° 0 mm 4 m/S 750 mmHg 79%
    12:00 +19°C° 0.1 mm 4 m/S 750 mmHg 77%
    13:00 +20°C° 0.1 mm 5 m/S 749 mmHg 76%
    14:00 +20°C° 0.1 mm 5 m/S 749 mmHg 75%
    15:00 +20°C° 0.1 mm 4 m/S 749 mmHg 75%
    16:00 +21°C° 0.1 mm 4 m/S 749 mmHg 75%
    17:00 +21°C° 0.1 mm 3 m/S 749 mmHg 76%
    18:00 +20°C° 0.2 mm 3 m/S 749 mmHg 80%
    19:00 +19°C° 0.2 mm 3 m/S 749 mmHg 85%
    20:00 +18°C° 0.2 mm 3 m/S 749 mmHg 90%
    21:00 +18°C° 0.1 mm 3 m/S 749 mmHg 91%
    22:00 +17°C° 0.1 mm 3 m/S 749 mmHg 93%
    23:00 +15°C° 0.1 mm 4 m/S 749 mmHg 94%

    Morgen, 24 Juli, Mittwoch

    Zeit Temperatur Niederschläge Wind Luftdruck Luftfeuchtigkeit
    00:00 +16°C° 0 mm 3 m/S 749 mmHg 95%
    01:00 +16°C° 0 mm 3 m/S 749 mmHg 96%
    02:00 +14°C° 0 mm 3 m/S 749 mmHg 97%
    03:00 +14°C° 0 mm 3 m/S 749 mmHg 97%
    04:00 +14°C° 0 mm 3 m/S 749 mmHg 97%
    05:00 +14°C° 0 mm 3 m/S 749 mmHg 97%
    06:00 +16°C° 0 mm 3 m/S 749 mmHg 94%
    07:00 +17°C° 0 mm 3 m/S 749 mmHg 91%
    08:00 +19°C° 0 mm 3 m/S 749 mmHg 88%
    09:00 +20°C° 0.1 mm 4 m/S 749 mmHg 80%
    10:00 +22°C° 0.1 mm 4 m/S 749 mmHg 72%
    11:00 +25°C° 0.1 mm 4 m/S 749 mmHg 64%
    12:00 +25°C° 0.1 mm 4 m/S 749 mmHg 63%
    13:00 +25°C° 0.1 mm 4 m/S 749 mmHg 61%
    14:00 +26°C° 0.1 mm 4 m/S 749 mmHg 60%
    15:00 +26°C° 0.1 mm 3 m/S 749 mmHg 61%
    16:00 +26°C° 0.1 mm 3 m/S 749 mmHg 63%
    17:00 +26°C° 0.1 mm 3 m/S 749 mmHg 64%
    18:00 +24°C° 0.1 mm 3 m/S 749 mmHg 70%
    19:00 +21°C° 0.1 mm 2 m/S 749 mmHg 75%
    20:00 +20°C° 0.1 mm 2 m/S 749 mmHg 81%
    21:00 +19°C° 0 mm 2 m/S 750 mmHg 84%
    22:00 +18°C° 0 mm 2 m/S 750 mmHg 87%
    23:00 +17°C° 0 mm 2 m/S 750 mmHg 90%

    übermorgen, 25 Juli, Donnerstag

    Zeit Temperatur Niederschläge Wind Luftdruck Luftfeuchtigkeit
    00:00 +16°C° 0 mm 2 m/S 750 mmHg 90%
    01:00 +16°C° 0 mm 2 m/S 750 mmHg 91%
    02:00 +15°C° 0 mm 2 m/S 750 mmHg 91%
    03:00 +15°C° 0 mm 2 m/S 750 mmHg 91%
    04:00 +15°C° 0 mm 2 m/S 750 mmHg 91%
    05:00 +14°C° 0 mm 2 m/S 751 mmHg 91%
    06:00 +16°C° 0 mm 2 m/S 751 mmHg 86%
    07:00 +18°C° 0 mm 2 m/S 751 mmHg 81%
    08:00 +20°C° 0 mm 2 m/S 751 mmHg 76%
    09:00 +21°C° 0.1 mm 2 m/S 751 mmHg 71%
    10:00 +24°C° 0.1 mm 3 m/S 750 mmHg 66%
    11:00 +25°C° 0.1 mm 3 m/S 750 mmHg 61%
    12:00 +25°C° 0.8 mm 3 m/S 750 mmHg 63%
    13:00 +25°C° 0.8 mm 3 m/S 750 mmHg 65%
    14:00 +25°C° 0.8 mm 3 m/S 749 mmHg 67%
    15:00 +24°C° 0.7 mm 3 m/S 749 mmHg 70%
    16:00 +24°C° 0.7 mm 3 m/S 749 mmHg 72%
    17:00 +24°C° 0.7 mm 3 m/S 749 mmHg 75%
    18:00 +21°C° 0.3 mm 3 m/S 748 mmHg 80%
    19:00 +20°C° 0.3 mm 2 m/S 748 mmHg 84%
    20:00 +19°C° 0.3 mm 2 m/S 748 mmHg 89%
    21:00 +18°C° 0 mm 2 m/S 748 mmHg 91%
    22:00 +17°C° 0 mm 2 m/S 748 mmHg 92%
    23:00 +16°C° 0 mm 2 m/S 748 mmHg 94%

    26 Juli, Freitag

    Zeit Temperatur Niederschläge Wind Luftdruck Luftfeuchtigkeit
    00:00 +16°C° 0 mm 2 m/S 748 mmHg 95%
    01:00 +15°C° 0 mm 2 m/S 748 mmHg 96%
    02:00 +15°C° 0 mm 2 m/S 748 mmHg 97%
    03:00 +15°C° 0 mm 2 m/S 748 mmHg 97%
    04:00 +14°C° 0 mm 2 m/S 748 mmHg 97%
    05:00 +14°C° 0 mm 2 m/S 748 mmHg 97%
    06:00 +14°C° 0 mm 3 m/S 748 mmHg 95%
    07:00 +16°C° 0 mm 3 m/S 748 mmHg 92%
    08:00 +17°C° 0 mm 3 m/S 748 mmHg 90%
    09:00 +18°C° 0.2 mm 4 m/S 748 mmHg 87%
    10:00 +19°C° 0.2 mm 4 m/S 748 mmHg 85%
    11:00 +19°C° 0.2 mm 4 m/S 748 mmHg 82%
    12:00 +20°C° 0.1 mm 4 m/S 747 mmHg 79%
    13:00 +21°C° 0.1 mm 4 m/S 747 mmHg 76%
    14:00 +22°C° 0.1 mm 4 m/S 747 mmHg 72%
    15:00 +22°C° 0.4 mm 4 m/S 747 mmHg 75%
    16:00 +22°C° 0.4 mm 5 m/S 747 mmHg 79%
    17:00 +22°C° 0.4 mm 5 m/S 747 mmHg 82%
    18:00 +21°C° 0.6 mm 5 m/S 747 mmHg 85%
    19:00 +20°C° 0.6 mm 4 m/S 747 mmHg 88%
    20:00 +19°C° 0.6 mm 4 m/S 747 mmHg 91%
    21:00 +18°C° 0.4 mm 4 m/S 747 mmHg 93%
    22:00 +18°C° 0.4 mm 4 m/S 747 mmHg 95%
    23:00 +17°C° 0.4 mm 4 m/S 747 mmHg 97%

    27 Juli, Samstag

    Zeit Temperatur Niederschläge Wind Luftdruck Luftfeuchtigkeit
    00:00 +17°C° 0 mm 4 m/S 747 mmHg 97%
    01:00 +17°C° 0 mm 3 m/S 746 mmHg 98%
    02:00 +16°C° 0 mm 3 m/S 746 mmHg 98%
    03:00 +17°C° 0.3 mm 3 m/S 746 mmHg 98%
    04:00 +17°C° 0.3 mm 3 m/S 746 mmHg 98%
    05:00 +17°C° 0.3 mm 3 m/S 746 mmHg 98%
    06:00 +17°C° 0.5 mm 3 m/S 746 mmHg 98%
    07:00 +17°C° 0.5 mm 2 m/S 746 mmHg 98%
    08:00 +17°C° 0.5 mm 2 m/S 746 mmHg 98%
    09:00 +18°C° 0.4 mm 2 m/S 746 mmHg 95%
    10:00 +19°C° 0.4 mm 3 m/S 746 mmHg 93%
    11:00 +20°C° 0.4 mm 3 m/S 746 mmHg 91%
    12:00 +21°C° 1 mm 4 m/S 745 mmHg 89%
    13:00 +22°C° 1 mm 4 m/S 745 mmHg 88%
    14:00 +22°C° 1 mm 5 m/S 745 mmHg 86%
    15:00 +22°C° 1 mm 5 m/S 745 mmHg 86%
    16:00 +22°C° 1 mm 5 m/S 745 mmHg 87%
    17:00 +22°C° 1 mm 5 m/S 744 mmHg 87%
    18:00 +21°C° 0.5 mm 5 m/S 744 mmHg 89%
    19:00 +20°C° 0.5 mm 4 m/S 744 mmHg 91%
    20:00 +20°C° 0.5 mm 3 m/S 744 mmHg 94%
    21:00 +19°C° 0 mm 3 m/S 744 mmHg 95%
    22:00 +19°C° 0 mm 3 m/S 745 mmHg 96%
    23:00 +18°C° 0 mm 3 m/S 745 mmHg 96%

    28 Juli, Sonntag

    Zeit Temperatur Niederschläge Wind Luftdruck Luftfeuchtigkeit
    00:00 +18°C° 0 mm 3 m/S 745 mmHg 97%
    01:00 +17°C° 0 mm 3 m/S 745 mmHg 97%
    02:00 +17°C° 0 mm 2 m/S 745 mmHg 97%
    03:00 +17°C° 0 mm 3 m/S 745 mmHg 97%
    04:00 +17°C° 0 mm 3 m/S 745 mmHg 97%
    05:00 +17°C° 0 mm 3 m/S 745 mmHg 97%
    06:00 +18°C° 0 mm 3 m/S 745 mmHg 94%
    07:00 +19°C° 0 mm 3 m/S 745 mmHg 92%
    08:00 +21°C° 0 mm 3 m/S 745 mmHg 90%
    09:00 +22°C° 0.5 mm 4 m/S 745 mmHg 83%
    10:00 +25°C° 0.5 mm 4 m/S 745 mmHg 77%
    11:00 +26°C° 0.5 mm 5 m/S 745 mmHg 71%
    12:00 +27°C° 0.1 mm 5 m/S 745 mmHg 68%
    13:00 +27°C° 0.1 mm 4 m/S 745 mmHg 65%
    14:00 +28°C° 0.1 mm 4 m/S 744 mmHg 62%
    15:00 +28°C° 0.3 mm 4 m/S 744 mmHg 67%
    16:00 +27°C° 0.3 mm 4 m/S 744 mmHg 71%
    17:00 +26°C° 0.3 mm 4 m/S 744 mmHg 76%
    18:00 +25°C° 0.2 mm 4 m/S 744 mmHg 80%
    19:00 +24°C° 0.2 mm 3 m/S 744 mmHg 84%
    20:00 +21°C° 0.2 mm 3 m/S 744 mmHg 88%
    21:00 +20°C° 0 mm 3 m/S 745 mmHg 90%
    22:00 +19°C° 0 mm 3 m/S 745 mmHg 92%
    23:00 +18°C° 0 mm 3 m/S 745 mmHg 94%
    Mehr zeigen